Weather Roundup
Issued by NWS Springfield, MO

Home | Current Version | Previous Version | Text Only | Print | Product List | Glossary On
Versions: 1 2 3 4 5 6 7 8 9 10 11 12 13 14 15 16 17 18 19 20 21 22 23 24 25 26 27 28 29 30 31 32 33 34 35 36 37 38 39 40 41 42 43 44 45 46 47 48 49 50
000
NZUS99 KSGF 291307
HRRSGF

HOURLY WEATHER
NATIONAL WEATHER SERVICE SPRINGFIELD MO
800 AM CDT TUE JUL 29 2014

......SGF CWA......

CITY           SKY/WX    TMP DP  RH WIND       PRES   REMARKS
SPRINGFIELD    SUNNY     64  57  78 S5        30.18R
JOPLIN         MOSUNNY   67  59  75 VRB3      30.19R
WEST PLAINS    SUNNY     64  55  72 NE5       30.18S
ROLLA          SUNNY     62  56  80 SW3       30.16S
OSAGE BEACH    SUNNY     61  55  82 CALM      30.18R
BRANSON        MOSUNNY   68  59  73 CALM      30.20R

......SURROUNDING SGF CWA......

CITY           SKY/WX    TMP DP  RH WIND       PRES   REMARKS
CHANUTE        PTSUNNY   67  60  78 CALM      30.19R
PARSONS        PTSUNNY   67  61  81 CALM      30.19R
COFFEYVILLE    SUNNY     67  61  81 CALM      30.18R
EMPORIA        PTSUNNY   64  60  87 CALM      30.20R
GROVE OK       PTSUNNY   64  64 100 CALM      30.19S
ROGERS AR      MOSUNNY   68  59  73 E7        30.21R
SILOAM SPRINGS SUNNY     64  55  72 CALM      30.20R
HARRISON AR    SUNNY     65  60  84 CALM      30.20R
NEAR YELLVILLE SUNNY     64  59  82 CALM      30.18R

......KANSAS AND MISSOURI......

CITY           SKY/WX    TMP DP  RH WIND       PRES   REMARKS
KANSAS CTY INT MOSUNNY   64  59  83 N3        30.18S
DOWNTOWN KC    SUNNY     66  60  81 NW5       30.17S
COLUMBIA       SUNNY     66  57  72 NW3       30.17S
SEDALIA        SUNNY     66  56  70 SW6       30.18R
ST JOSEPH      MOSUNNY   61  59  93 NE3       30.19S
ST LOUIS       SUNNY     66  57  72 W6        30.15R
SPIRIT OF STL  MOSUNNY   58  57  97 CALM      30.15R
KIRKSVILLE     SUNNY     63  59  87 W3        30.17S
WICHITA        MOSUNNY   69  59  70 E7        30.20R
TOPEKA         PTSUNNY   66  58  75 CALM      30.19S
OLATHE         SUNNY     65  59  81 CALM      30.18S

......TENNESSEE......

CITY           SKY/WX    TMP DP  RH WIND       PRES   REMARKS
MEMPHIS        MOSUNNY   71  57  61 NE10      30.13R
NASHVILLE      SUNNY     65  50  58 N13       30.10R

......ARKANSAS.......

CITY           SKY/WX    TMP DP  RH WIND       PRES   REMARKS
FAYETTEVILLE   SUNNY     60  59  96 CALM      30.20R
FT SMITH       SUNNY     72  64  76 NE3       30.15R
LITTLE ROCK    MOSUNNY   71  61  70 NE8       30.15R

......OKLAHOMA.......

CITY           SKY/WX    TMP DP  RH WIND       PRES   REMARKS
TULSA          MOSUNNY   69  64  84 NW3       30.15R
PONCA CITY     SUNNY     70  61  73 E6        30.17R
MCALESTER      SUNNY     69  64  84 CALM      30.16R
OKLAHOMA CITY  PTSUNNY   76  64  66 CALM      30.17R

......IOWA............

CITY           SKY/WX    TMP DP  RH WIND       PRES   REMARKS
DES MOINES     MOSUNNY   62  55  77 NW5       30.16R
QUAD CITIES    SUNNY     62  57  83 W7        30.12R

......ILLINOIS........

CITY           SKY/WX    TMP DP  RH WIND       PRES   REMARKS
QUINCY         SUNNY     62  58  86 W6        30.14S
CHICAGO        MOSUNNY   65  52  62 W8        30.04S



USA.gov is the U.S. government's official web portal to all federal, state and local government web resources and services.